Location: Bakov nad Jizerou
(50.4784°N, 14.9394°E)
Time: 22:26:23
(UTC+00:00)

Resurs 1-4 Rocket - Pass Details

Date: 16 June 2021
Orbit: 800 x 813 km, 98.6° (Epoch: 23 July)

Event Time Altitude Azimuth Distance (km) Brightness Sun altitude
Rises 23:06:41 0° 29° (NNE) 3,342 6.5 -16.1°
Reaches altitude 10° 23:10:11 10° 53° (NE) 2,407 5.1 -16.1°
Maximum altitude 23:13:05 15° 86° (E) 2,089 4.3 -16.1°
Drops below altitude 10° 23:15:59 10° 120° (ESE) 2,400 4.3 -16.1°
Enters shadow 23:17:03 - 129° (SE) 2,642 4.4 -16.1°
